When you browse on this site, cookies collect data to enhance your experience and personalize the content and advertising you see.
Visit our Privacy Policy to learn more. By continuing to use the site, you agree to this use of cookies and data.
  • în România
  • Lista ţărilor
  • Pe 7 zile
  • Temperatura apei
  • Hartă satelitară
  • Meteo pe hartă
  • Widget-uri
  • user-avatar
    Intrare

    Meteo pe oră la Arneguy

    Astăzi, 16 Iulie, Marţi

    Timp Temperatura Precipitaţii Vânt Presiune Umiditate
    00:00 +13°C° 0 mm 1 m/s 703 mmHg 86%
    01:00 +12°C° 0 mm 1 m/s 703 mmHg 88%
    02:00 +12°C° 0 mm 1 m/s 703 mmHg 91%
    03:00 +12°C° 0 mm 1 m/s 703 mmHg 94%
    04:00 +13°C° 0 mm 1 m/s 703 mmHg 92%
    05:00 +14°C° 0 mm 1 m/s 703 mmHg 90%
    06:00 +14°C° 0 mm 1 m/s 703 mmHg 87%
    07:00 +18°C° 0 mm 1 m/s 704 mmHg 78%
    08:00 +20°C° 0 mm 1 m/s 704 mmHg 68%
    09:00 +22°C° 0 mm 1 m/s 705 mmHg 58%
    10:00 +23°C° 0 mm 2 m/s 705 mmHg 54%
    11:00 +25°C° 0 mm 2 m/s 705 mmHg 50%
    12:00 +26°C° 0 mm 2 m/s 705 mmHg 46%
    13:00 +26°C° 0 mm 2 m/s 704 mmHg 48%
    14:00 +26°C° 0 mm 2 m/s 704 mmHg 49%
    15:00 +26°C° 0 mm 3 m/s 704 mmHg 51%
    16:00 +25°C° 0 mm 2 m/s 704 mmHg 58%
    17:00 +23°C° 0 mm 2 m/s 703 mmHg 64%
    18:00 +21°C° 0 mm 2 m/s 703 mmHg 70%
    19:00 +19°C° 0 mm 2 m/s 703 mmHg 78%
    20:00 +18°C° 0 mm 1 m/s 703 mmHg 86%
    21:00 +15°C° 0 mm 1 m/s 703 mmHg 93%
    22:00 +15°C° 0 mm 1 m/s 703 mmHg 92%
    23:00 +15°C° 0 mm 1 m/s 703 mmHg 90%

    Mâine, 17 Iulie, Miercuri

    Timp Temperatura Precipitaţii Vânt Presiune Umiditate
    00:00 +15°C° 0 mm 1 m/s 703 mmHg 89%
    01:00 +14°C° 0 mm 1 m/s 703 mmHg 87%
    02:00 +14°C° 0 mm 1 m/s 702 mmHg 86%
    03:00 +14°C° 0 mm 1 m/s 702 mmHg 84%
    04:00 +15°C° 0 mm 1 m/s 702 mmHg 84%
    05:00 +15°C° 0 mm 1 m/s 702 mmHg 83%
    06:00 +16°C° 0 mm 1 m/s 703 mmHg 83%
    07:00 +19°C° 0 mm 1 m/s 703 mmHg 76%
    08:00 +20°C° 0 mm 1 m/s 703 mmHg 69%
    09:00 +21°C° 0 mm 2 m/s 704 mmHg 63%
    10:00 +23°C° 0 mm 2 m/s 704 mmHg 60%
    11:00 +24°C° 0 mm 2 m/s 704 mmHg 58%
    12:00 +25°C° 0 mm 2 m/s 704 mmHg 55%
    13:00 +25°C° 0 mm 3 m/s 703 mmHg 58%
    14:00 +25°C° 0 mm 3 m/s 703 mmHg 60%
    15:00 +25°C° 0 mm 3 m/s 703 mmHg 62%
    16:00 +22°C° 0 mm 3 m/s 703 mmHg 68%
    17:00 +21°C° 0 mm 3 m/s 703 mmHg 74%
    18:00 +19°C° 0 mm 3 m/s 703 mmHg 80%
    19:00 +18°C° 0 mm 2 m/s 703 mmHg 85%
    20:00 +16°C° 0 mm 2 m/s 703 mmHg 91%
    21:00 +15°C° 0 mm 1 m/s 703 mmHg 97%
    22:00 +15°C° 0 mm 1 m/s 703 mmHg 97%
    23:00 +14°C° 0 mm 1 m/s 703 mmHg 97%

    Poimâine, 18 Iulie, Joi

    Timp Temperatura Precipitaţii Vânt Presiune Umiditate
    00:00 +14°C° 0 mm 1 m/s 703 mmHg 97%
    01:00 +14°C° 0 mm 1 m/s 703 mmHg 96%
    02:00 +14°C° 0 mm 1 m/s 703 mmHg 95%
    03:00 +14°C° 0 mm 1 m/s 703 mmHg 94%
    04:00 +14°C° 0 mm 1 m/s 703 mmHg 94%
    05:00 +14°C° 0 mm 1 m/s 703 mmHg 93%
    06:00 +15°C° 0 mm 1 m/s 703 mmHg 92%
    07:00 +16°C° 0 mm 1 m/s 703 mmHg 85%
    08:00 +17°C° 0 mm 2 m/s 703 mmHg 79%
    09:00 +18°C° 0 mm 2 m/s 704 mmHg 72%
    10:00 +19°C° 0 mm 2 m/s 704 mmHg 68%
    11:00 +20°C° 0 mm 2 m/s 704 mmHg 64%
    12:00 +21°C° 0 mm 2 m/s 704 mmHg 60%
    13:00 +21°C° 0 mm 3 m/s 703 mmHg 59%
    14:00 +22°C° 0 mm 3 m/s 703 mmHg 58%
    15:00 +22°C° 0 mm 3 m/s 703 mmHg 57%
    16:00 +21°C° 0 mm 3 m/s 703 mmHg 62%
    17:00 +19°C° 0 mm 3 m/s 703 mmHg 66%
    18:00 +18°C° 0 mm 2 m/s 703 mmHg 71%
    19:00 +16°C° 0 mm 2 m/s 703 mmHg 79%
    20:00 +14°C° 0 mm 2 m/s 703 mmHg 86%
    21:00 +12°C° 0 mm 1 m/s 703 mmHg 94%
    22:00 +12°C° 0 mm 1 m/s 703 mmHg 94%
    23:00 +11°C° 0 mm 1 m/s 703 mmHg 94%

    19 Iulie, Vineri

    Timp Temperatura Precipitaţii Vânt Presiune Umiditate
    00:00 +11°C° 0 mm 1 m/s 703 mmHg 94%
    01:00 +11°C° 0 mm 1 m/s 703 mmHg 94%
    02:00 +11°C° 0 mm 1 m/s 703 mmHg 95%
    03:00 +11°C° 0 mm 1 m/s 703 mmHg 95%
    04:00 +12°C° 0 mm 1 m/s 703 mmHg 94%
    05:00 +12°C° 0 mm 1 m/s 703 mmHg 92%
    06:00 +13°C° 0 mm 1 m/s 703 mmHg 91%
    07:00 +15°C° 0 mm 1 m/s 703 mmHg 80%
    08:00 +19°C° 0 mm 1 m/s 704 mmHg 70%
    09:00 +21°C° 0 mm 1 m/s 704 mmHg 60%
    10:00 +23°C° 0 mm 1 m/s 704 mmHg 54%
    11:00 +25°C° 0 mm 1 m/s 704 mmHg 49%
    12:00 +27°C° 0 mm 1 m/s 704 mmHg 44%
    13:00 +27°C° 0 mm 2 m/s 704 mmHg 45%
    14:00 +27°C° 0 mm 2 m/s 703 mmHg 46%
    15:00 +27°C° 0 mm 2 m/s 703 mmHg 47%
    16:00 +26°C° 0 mm 2 m/s 703 mmHg 53%
    17:00 +25°C° 0 mm 2 m/s 702 mmHg 60%
    18:00 +24°C° 0 mm 2 m/s 702 mmHg 66%
    19:00 +22°C° 0 mm 1 m/s 702 mmHg 75%
    20:00 +20°C° 0 mm 1 m/s 702 mmHg 84%
    21:00 +18°C° 0 mm 1 m/s 702 mmHg 93%
    22:00 +18°C° 0 mm 1 m/s 702 mmHg 91%
    23:00 +15°C° 0 mm 0 m/s 702 mmHg 90%

    20 Iulie, Sâmbătă

    Timp Temperatura Precipitaţii Vânt Presiune Umiditate
    00:00 +15°C° 0 mm 0 m/s 702 mmHg 88%
    01:00 +15°C° 0 mm 0 m/s 702 mmHg 89%
    02:00 +15°C° 0 mm 0 m/s 702 mmHg 90%
    03:00 +15°C° 0 mm 0 m/s 702 mmHg 90%
    04:00 +15°C° 0.1 mm 0 m/s 702 mmHg 91%
    05:00 +16°C° 0.1 mm 0 m/s 702 mmHg 91%
    06:00 +16°C° 0.1 mm 0 m/s 702 mmHg 91%
    07:00 +18°C° 0 mm 0 m/s 703 mmHg 84%
    08:00 +20°C° 0 mm 0 m/s 703 mmHg 78%
    09:00 +21°C° 0 mm 0 m/s 704 mmHg 71%
    10:00 +25°C° 0 mm 1 m/s 704 mmHg 66%
    11:00 +26°C° 0 mm 1 m/s 704 mmHg 61%
    12:00 +28°C° 0 mm 2 m/s 705 mmHg 56%
    13:00 +27°C° 0 mm 2 m/s 704 mmHg 57%
    14:00 +27°C° 0 mm 2 m/s 704 mmHg 57%
    15:00 +27°C° 0 mm 3 m/s 704 mmHg 58%
    16:00 +26°C° 0 mm 3 m/s 704 mmHg 64%
    17:00 +24°C° 0 mm 3 m/s 704 mmHg 70%
    18:00 +23°C° 0 mm 2 m/s 703 mmHg 75%
    19:00 +20°C° 0 mm 2 m/s 704 mmHg 83%
    20:00 +20°C° 0 mm 1 m/s 704 mmHg 90%
    21:00 +18°C° 0 mm 1 m/s 704 mmHg 97%
    22:00 +18°C° 0 mm 1 m/s 705 mmHg 97%
    23:00 +18°C° 0 mm 1 m/s 705 mmHg 97%

    21 Iulie, Duminică

    Timp Temperatura Precipitaţii Vânt Presiune Umiditate
    00:00 +16°C° 0 mm 1 m/s 705 mmHg 97%
    01:00 +16°C° 0.1 mm 1 m/s 704 mmHg 96%
    02:00 +15°C° 0.1 mm 0 m/s 704 mmHg 96%
    03:00 +15°C° 0.1 mm 0 m/s 704 mmHg 95%
    04:00 +15°C° 0.2 mm 0 m/s 704 mmHg 94%
    05:00 +16°C° 0.2 mm 0 m/s 704 mmHg 93%
    06:00 +16°C° 0.2 mm 0 m/s 705 mmHg 92%
    07:00 +19°C° 0.2 mm 0 m/s 705 mmHg 85%
    08:00 +21°C° 0.2 mm 0 m/s 705 mmHg 78%
    09:00 +23°C° 0.2 mm 0 m/s 706 mmHg 71%
    10:00 +26°C° 0 mm 1 m/s 706 mmHg 64%
    11:00 +28°C° 0 mm 1 m/s 706 mmHg 56%
    12:00 +30°C° 0 mm 1 m/s 706 mmHg 48%
    13:00 +31°C° 0 mm 1 m/s 705 mmHg 47%
    14:00 +31°C° 0 mm 1 m/s 705 mmHg 46%
    15:00 +32°C° 0 mm 1 m/s 705 mmHg 44%
    16:00 +31°C° 0 mm 2 m/s 705 mmHg 51%
    17:00 +29°C° 0 mm 2 m/s 705 mmHg 58%
    18:00 +28°C° 0 mm 2 m/s 705 mmHg 66%
    19:00 +25°C° 0.5 mm 2 m/s 705 mmHg 75%
    20:00 +23°C° 0.5 mm 1 m/s 705 mmHg 83%
    21:00 +21°C° 0.5 mm 1 m/s 705 mmHg 92%
    22:00 +20°C° 0 mm 1 m/s 705 mmHg 93%
    23:00 +20°C° 0 mm 1 m/s 704 mmHg 94%
    Arată mai mult